Weather History for Windom, MN

Change the Weather History Date:

Wednesday, January 29, 2014

  Actual Average Record
Temperature  
Mean Temperature 15 °F -  
Max Temperature 35 °F 24 °F 48 °F (1989)
Min Temperature -5 °F 4 °F -27 °F (1966)
Degree Days  
Heating Degree Days 50    
Moisture  
Dew Point 5 °F    
Average Humidity 61    
Maximum Humidity 78    
Minimum Humidity 44    
Precipitation  
Precipitation 0.00 in - - ()
Sea Level Pressure  
Sea Level Pressure 29.78 in    
Wind  
Wind Speed 11 mph (SSW)    
Max Wind Speed 24 mph    
Max Gust Speed 32 mph    
Visibility 10 miles    
Events      
Averages and records for this station are not official NWS values.
T = Trace of Precipitation, MM = Missing Value Source: NWS Daily Summary

Daily Weather History Graph

Daily Weather History Graph

Search for Another Location

Airport:

Trip Planner

Search our weather history database for the weather conditions in past years. The results will help you decide how hot, cold, wet, or windy it might be!

Date:

Astronomy

Jan. 29, 2014 Rise Set
Actual Time 7:40 AM CST 5:26 PM CST
Civil Twilight 7:09 AM CST 5:57 PM CST
Nautical Twilight 6:35 AM CST 6:32 PM CST
Astronomical Twilight 6:01 AM CST 7:06 PM CST
Moon 6:18 AM CST (1/29) 4:27 PM CST (1/29)
Length of Visible Light 10h 47m
Length of Day
9h 46m
Waning Crescent, 2% of the Moon is Illuminated
Jan 29
Waning Crescent
Jan 30
New
Feb 6
First Quarter
Feb 14
Full
Feb 22
Last Quarter

Hourly Weather History & Observations

Time (CST) Temp. Windchill Dew Point Humidity Pressure Visibility Wind Dir Wind Speed Gust Speed Precip Events Conditions
12:12 AM -5.8 °F -19.9 °F -11.2 °F 77% 30.08 in 10.0 mi SSW 6.9 mph - N/A   Clear
12:33 AM -5.8 °F -16.7 °F -11.2 °F 77% 30.08 in 10.0 mi SW 4.6 mph - N/A   Clear
12:52 AM -4.0 °F -17.8 °F -9.4 °F 78% 30.08 in 10.0 mi SSW 6.9 mph - N/A   Clear
1:12 AM -4.0 °F -17.8 °F -9.4 °F 78% 30.07 in 10.0 mi SSW 6.9 mph - N/A   Clear
1:33 AM -4.0 °F -17.8 °F -9.4 °F 78% 30.07 in 10.0 mi SW 6.9 mph - N/A   Clear
1:52 AM -4.0 °F -14.6 °F -9.4 °F 78% 30.06 in 10.0 mi WSW 4.6 mph - N/A   Clear
2:12 AM -4.0 °F -16.3 °F -9.4 °F 78% 30.06 in 10.0 mi SW 5.8 mph - N/A   Clear
2:33 AM -2.2 °F -16.8 °F -9.4 °F 71% 30.05 in 10.0 mi SW 8.1 mph - N/A   Clear
2:52 AM -2.2 °F -15.6 °F -9.4 °F 71% 30.04 in 10.0 mi SW 6.9 mph - N/A   Clear
3:13 AM -2.2 °F -15.6 °F -9.4 °F 71% 30.04 in 10.0 mi SW 6.9 mph - N/A   Clear
3:33 AM -2.2 °F -16.8 °F -9.4 °F 71% 30.02 in 10.0 mi SW 8.1 mph - N/A   Clear
3:52 AM -2.2 °F -18.0 °F -9.4 °F 71% 30.02 in 10.0 mi SW 9.2 mph - N/A   Clear
4:13 AM -2.2 °F -15.6 °F -9.4 °F 71% 30.02 in 10.0 mi SW 6.9 mph - N/A   Clear
4:32 AM -2.2 °F -12.5 °F -9.4 °F 71% 30.01 in 10.0 mi SSW 4.6 mph - N/A   Clear
4:53 AM -2.2 °F -15.6 °F -9.4 °F 71% 30.00 in 10.0 mi SW 6.9 mph - N/A   Clear
5:13 AM -0.4 °F -15.7 °F -7.6 °F 72% 29.99 in 10.0 mi SW 9.2 mph - N/A   Clear
5:32 AM -0.4 °F -19.9 °F -7.6 °F 72% 29.97 in 10.0 mi SSW 15.0 mph - N/A   Clear
5:53 AM 1.4 °F -16.9 °F -7.6 °F 66% 29.96 in 10.0 mi SSW 13.8 mph - N/A   Clear
6:13 AM 1.4 °F -16.9 °F -5.8 °F 72% 29.95 in 10.0 mi SSW 13.8 mph - N/A   Clear
6:32 AM 1.4 °F -16.9 °F -5.8 °F 72% 29.94 in 10.0 mi SSW 13.8 mph - N/A   Clear
6:53 AM 1.4 °F -16.9 °F -5.8 °F 72% 29.94 in 10.0 mi SSW 13.8 mph - N/A   Clear
7:12 AM 1.4 °F -16.1 °F -5.8 °F 72% 29.93 in 10.0 mi SSW 12.7 mph - N/A   Clear
7:32 AM 1.4 °F -17.6 °F -5.8 °F 72% 29.92 in 10.0 mi SSW 15.0 mph - N/A   Clear
7:52 AM 3.2 °F -14.6 °F -5.8 °F 66% 29.91 in 10.0 mi SSW 13.8 mph - N/A   Clear
8:12 AM 3.2 °F -13.9 °F -5.8 °F 66% 29.92 in 10.0 mi SSW 12.7 mph - N/A   Clear
8:33 AM 3.2 °F -13.9 °F -5.8 °F 66% 29.91 in 10.0 mi SSW 12.7 mph - N/A   Clear
8:52 AM 5.0 °F -10.8 °F -5.8 °F 61% 29.90 in 10.0 mi SSW 11.5 mph - N/A   Clear
9:12 AM 6.8 °F -6.9 °F -4.0 °F 61% 29.88 in 10.0 mi South 9.2 mph 17.3 mph N/A   Clear
9:33 AM 6.8 °F -9.3 °F -2.2 °F 67% 29.87 in 10.0 mi South 12.7 mph - N/A   Clear
9:52 AM 10.4 °F -5.4 °F -0.4 °F 62% 29.88 in 10.0 mi SSW 13.8 mph - N/A   Clear
10:12 AM 12.2 °F -1.8 °F 1.4 °F 62% 29.88 in 10.0 mi SSW 11.5 mph - N/A   Clear
10:33 AM 15.8 °F 2.7 °F 3.2 °F 58% 29.86 in 10.0 mi SSW 11.5 mph - N/A   Clear
10:52 AM 17.6 °F 4.3 °F 6.8 °F 63% 29.85 in 10.0 mi South 12.7 mph - N/A   Clear
11:12 AM 19.4 °F 7.2 °F 6.8 °F 58% 29.83 in 10.0 mi South 11.5 mph - N/A   Clear
11:33 AM 21.2 °F 8.3 °F 8.6 °F 58% 29.81 in 10.0 mi South 13.8 mph 18.4 mph N/A   Clear
11:52 AM 24.8 °F 11.9 °F 10.4 °F 54% 29.79 in 10.0 mi South 16.1 mph 21.9 mph N/A   Clear
12:12 PM 26.6 °F 14.3 °F 10.4 °F 51% 29.77 in 10.0 mi South 16.1 mph 23.0 mph N/A   Clear
12:32 PM 28.4 °F 16.6 °F 10.4 °F 47% 29.75 in 10.0 mi South 16.1 mph 27.6 mph N/A   Clear
12:52 PM 28.4 °F 16.2 °F 10.4 °F 47% 29.73 in 10.0 mi South 17.3 mph 25.3 mph N/A   Clear
1:12 PM 30.2 °F 18.1 °F 12.2 °F 47% 29.71 in 10.0 mi South 18.4 mph 26.5 mph N/A   Clear
1:32 PM 30.2 °F 17.4 °F 14.0 °F 51% 29.69 in 10.0 mi South 20.7 mph 25.3 mph N/A   Clear
1:53 PM 32.0 °F 20.1 °F 15.8 °F 51% 29.67 in 10.0 mi South 19.6 mph 28.8 mph N/A   Clear
2:12 PM 33.8 °F 22.8 °F 15.8 °F 48% 29.65 in 10.0 mi South 18.4 mph 26.5 mph N/A   Clear
2:32 PM 35.6 °F 25.2 °F 15.8 °F 44% 29.64 in 10.0 mi South 18.4 mph 26.5 mph N/A   Clear
2:53 PM 35.6 °F 24.0 °F 15.8 °F 44% 29.63 in 10.0 mi South 23.0 mph 32.2 mph N/A   Clear
3:12 PM 35.6 °F 23.7 °F 15.8 °F 44% 29.62 in 10.0 mi SSW 24.2 mph 32.2 mph N/A   Clear
3:32 PM 33.8 °F 22.8 °F 17.6 °F 52% 29.62 in 10.0 mi South 18.4 mph 27.6 mph N/A   Clear
3:53 PM 35.6 °F 25.2 °F 17.6 °F 48% 29.61 in 10.0 mi South 18.4 mph 25.3 mph N/A   Scattered Clouds
4:12 PM 35.6 °F 25.9 °F 17.6 °F 48% 29.61 in 10.0 mi South 16.1 mph 21.9 mph N/A   Scattered Clouds
4:32 PM 35.6 °F 26.2 °F 17.6 °F 48% 29.61 in 10.0 mi South 15.0 mph 20.7 mph N/A   Scattered Clouds
4:53 PM 35.6 °F 25.9 °F 17.6 °F 48% 29.60 in 10.0 mi SSW 16.1 mph 24.2 mph N/A   Mostly Cloudy
5:12 PM 35.6 °F 25.2 °F 17.6 °F 48% 29.59 in 10.0 mi SSW 18.4 mph - N/A   Scattered Clouds
5:32 PM 33.8 °F 24.8 °F 17.6 °F 52% 29.58 in 10.0 mi South 12.7 mph 19.6 mph N/A   Clear
5:53 PM 33.8 °F 24.8 °F 17.6 °F 52% 29.58 in 10.0 mi South 12.7 mph 20.7 mph N/A   Clear
6:13 PM 33.8 °F 24.8 °F 17.6 °F 52% 29.58 in 10.0 mi South 12.7 mph 19.6 mph N/A   Clear
6:33 PM 32.0 °F 22.1 °F 17.6 °F 55% 29.58 in 10.0 mi South 13.8 mph 17.3 mph N/A   Clear
6:53 PM 32.0 °F 22.5 °F 17.6 °F 55% 29.58 in 10.0 mi SSW 12.7 mph 17.3 mph N/A   Clear
7:12 PM 30.2 °F 20.8 °F 17.6 °F 60% 29.58 in 10.0 mi SSW 11.5 mph - N/A   Scattered Clouds
7:33 PM 30.2 °F 20.2 °F 17.6 °F 60% 29.58 in 10.0 mi SSW 12.7 mph - N/A   Clear
7:52 PM 30.2 °F 20.2 °F 15.8 °F 55% 29.58 in 10.0 mi SSW 12.7 mph - N/A   Clear
8:13 PM 28.4 °F 19.7 °F 15.8 °F 59% 29.57 in 10.0 mi SSW 9.2 mph - N/A   Clear
8:32 PM 28.4 °F 19.7 °F 15.8 °F 59% 29.56 in 10.0 mi SSW 9.2 mph - N/A   Clear
8:52 PM 28.4 °F 19.7 °F 15.8 °F 59% 29.55 in 10.0 mi South 9.2 mph - N/A   Clear
9:13 PM 28.4 °F 19.7 °F 15.8 °F 59% 29.54 in 10.0 mi South 9.2 mph - N/A   Clear
9:32 PM 30.2 °F 22.6 °F 15.8 °F 55% 29.53 in 10.0 mi South 8.1 mph - N/A   Clear
9:52 PM 30.2 °F 20.8 °F 15.8 °F 55% 29.52 in 10.0 mi South 11.5 mph 17.3 mph N/A   Clear
10:13 PM 30.2 °F 19.8 °F 15.8 °F 55% 29.52 in 10.0 mi South 13.8 mph - N/A   Clear
10:32 PM 30.2 °F 20.2 °F 15.8 °F 55% 29.50 in 10.0 mi South 12.7 mph - N/A   Clear
10:52 PM 30.2 °F 20.8 °F 15.8 °F 55% 29.49 in 10.0 mi South 11.5 mph - N/A   Clear
11:13 PM 30.2 °F 20.2 °F 15.8 °F 55% 29.48 in 10.0 mi South 12.7 mph 18.4 mph N/A   Clear
11:32 PM 30.2 °F 19.8 °F 15.8 °F 55% 29.47 in 10.0 mi South 13.8 mph - N/A   Scattered Clouds
11:52 PM 32.0 °F 22.1 °F 17.6 °F 55% 29.47 in 10.0 mi South 13.8 mph 18.4 mph N/A   Overcast